• In Romania
  • List of Countries
  • For 7 days
  • Water Temperature
  • Satellite Maps
  • Weather Map
  • Weather Widgets
  • user-avatar
    Login

    Hourly Weather Fofanovo

    Today, 25 September, Tuesday

    Time Temperature Precipitation Wind Pressure Humidity
    00:00 +5°C° 0.3 mm 6 mps 731 mmHg 91%
    01:00 +5°C° 0.3 mm 6 mps 731 mmHg 91%
    02:00 +6°C° 0 mm 5 mps 732 mmHg 91%
    03:00 +5°C° 0 mm 5 mps 733 mmHg 91%
    04:00 +5°C° 0 mm 5 mps 734 mmHg 91%
    05:00 +3°C° 0 mm 5 mps 734 mmHg 90%
    06:00 +3°C° 0 mm 5 mps 735 mmHg 89%
    07:00 +5°C° 0 mm 5 mps 736 mmHg 88%
    08:00 +5°C° 0 mm 5 mps 737 mmHg 86%
    09:00 +5°C° 0 mm 5 mps 738 mmHg 82%
    10:00 +6°C° 0 mm 5 mps 738 mmHg 79%
    11:00 +6°C° 0 mm 5 mps 739 mmHg 75%
    12:00 +7°C° 0.1 mm 5 mps 740 mmHg 71%
    13:00 +8°C° 0.1 mm 5 mps 740 mmHg 66%
    14:00 +8°C° 0.1 mm 5 mps 741 mmHg 62%
    15:00 +8°C° 0.1 mm 5 mps 741 mmHg 65%
    16:00 +7°C° 0.1 mm 4 mps 742 mmHg 68%
    17:00 +6°C° 0.1 mm 4 mps 742 mmHg 71%
    18:00 +5°C° 0 mm 4 mps 743 mmHg 74%
    19:00 +4°C° 0 mm 4 mps 744 mmHg 76%
    20:00 +4°C° 0 mm 3 mps 745 mmHg 79%
    21:00 +3°C° 0 mm 3 mps 745 mmHg 79%
    22:00 +3°C° 0 mm 3 mps 746 mmHg 78%
    23:00 +2°C° 0 mm 3 mps 747 mmHg 78%

    Tomorrow, 26 September, Wednesday

    Time Temperature Precipitation Wind Pressure Humidity
    00:00 +2°C° 0 mm 3 mps 747 mmHg 79%
    01:00 +1°C° 0 mm 3 mps 747 mmHg 81%
    02:00 +1°C° 0 mm 3 mps 748 mmHg 83%
    03:00 +1°C° 0 mm 3 mps 748 mmHg 86%
    04:00 +1°C° 0 mm 3 mps 748 mmHg 89%
    05:00 +2°C° 0 mm 2 mps 749 mmHg 93%
    06:00 +2°C° 0 mm 3 mps 749 mmHg 88%
    07:00 +3°C° 0 mm 3 mps 749 mmHg 84%
    08:00 +4°C° 0 mm 3 mps 749 mmHg 79%
    09:00 +5°C° 0 mm 4 mps 749 mmHg 73%
    10:00 +7°C° 0 mm 4 mps 749 mmHg 66%
    11:00 +10°C° 0 mm 4 mps 749 mmHg 59%
    12:00 +9°C° 0 mm 5 mps 748 mmHg 57%
    13:00 +10°C° 0 mm 5 mps 747 mmHg 55%
    14:00 +10°C° 0 mm 5 mps 747 mmHg 54%
    15:00 +9°C° 0.1 mm 6 mps 746 mmHg 60%
    16:00 +9°C° 0.1 mm 6 mps 745 mmHg 66%
    17:00 +8°C° 0.1 mm 6 mps 744 mmHg 73%
    18:00 +7°C° 0.9 mm 6 mps 743 mmHg 78%
    19:00 +5°C° 0.9 mm 7 mps 742 mmHg 83%
    20:00 +5°C° 0.9 mm 7 mps 741 mmHg 88%
    21:00 +5°C° 1.2 mm 8 mps 740 mmHg 89%
    22:00 +5°C° 1.2 mm 8 mps 739 mmHg 89%
    23:00 +5°C° 1.2 mm 8 mps 737 mmHg 90%

    Day after tomorrow, 27 September, Thursday

    Time Temperature Precipitation Wind Pressure Humidity
    00:00 +5°C° 0.6 mm 8 mps 736 mmHg 90%
    01:00 +5°C° 0.6 mm 8 mps 736 mmHg 90%
    02:00 +6°C° 0.6 mm 8 mps 735 mmHg 90%
    03:00 +6°C° 0.9 mm 7 mps 734 mmHg 91%
    04:00 +8°C° 0.9 mm 6 mps 734 mmHg 92%
    05:00 +8°C° 0.9 mm 5 mps 734 mmHg 93%
    06:00 +8°C° 0.3 mm 5 mps 734 mmHg 91%
    07:00 +8°C° 0.3 mm 5 mps 735 mmHg 89%
    08:00 +8°C° 0.3 mm 4 mps 735 mmHg 86%
    09:00 +8°C° 0 mm 5 mps 735 mmHg 78%
    10:00 +9°C° 0 mm 5 mps 736 mmHg 70%
    11:00 +10°C° 0 mm 6 mps 736 mmHg 62%
    12:00 +10°C° 0.1 mm 6 mps 736 mmHg 59%
    13:00 +10°C° 0.1 mm 6 mps 736 mmHg 56%
    14:00 +11°C° 0.1 mm 7 mps 737 mmHg 53%
    15:00 +10°C° 0.2 mm 6 mps 737 mmHg 59%
    16:00 +10°C° 0.2 mm 4 mps 737 mmHg 64%
    17:00 +9°C° 0.2 mm 3 mps 738 mmHg 70%
    18:00 +9°C° 0 mm 3 mps 738 mmHg 72%
    19:00 +8°C° 0 mm 3 mps 739 mmHg 74%
    20:00 +7°C° 0 mm 3 mps 739 mmHg 76%
    21:00 +5°C° 0 mm 3 mps 739 mmHg 77%
    22:00 +5°C° 0 mm 3 mps 739 mmHg 77%
    23:00 +5°C° 0 mm 3 mps 740 mmHg 78%

    28 September, Friday

    Time Temperature Precipitation Wind Pressure Humidity
    00:00 +4°C° 0 mm 3 mps 739 mmHg 81%
    01:00 +4°C° 0 mm 3 mps 739 mmHg 84%
    02:00 +4°C° 0 mm 2 mps 739 mmHg 87%
    03:00 +4°C° 0.3 mm 3 mps 738 mmHg 87%
    04:00 +4°C° 0.3 mm 4 mps 736 mmHg 87%
    05:00 +5°C° 0.3 mm 5 mps 735 mmHg 88%
    06:00 +7°C° 1.1 mm 6 mps 734 mmHg 89%
    07:00 +9°C° 1.1 mm 6 mps 732 mmHg 90%
    08:00 +11°C° 1.1 mm 7 mps 731 mmHg 91%
    09:00 +11°C° 1.1 mm 7 mps 731 mmHg 89%
    10:00 +11°C° 1.1 mm 8 mps 730 mmHg 87%
    11:00 +11°C° 1.1 mm 8 mps 730 mmHg 85%
    12:00 +11°C° 0.7 mm 7 mps 731 mmHg 84%
    13:00 +10°C° 0.7 mm 7 mps 732 mmHg 83%
    14:00 +9°C° 0.7 mm 7 mps 732 mmHg 82%
    15:00 +7°C° 0.1 mm 6 mps 734 mmHg 83%
    16:00 +6°C° 0.1 mm 5 mps 736 mmHg 84%
    17:00 +5°C° 0.1 mm 4 mps 737 mmHg 84%
    18:00 +4°C° 0 mm 3 mps 738 mmHg 87%
    19:00 +4°C° 0 mm 2 mps 739 mmHg 90%
    20:00 +3°C° 0 mm 2 mps 740 mmHg 93%
    21:00 +3°C° 0 mm 2 mps 740 mmHg 93%
    22:00 +3°C° 0 mm 2 mps 741 mmHg 94%
    23:00 +3°C° 0 mm 2 mps 741 mmHg 95%

    29 September, Saturday

    Time Temperature Precipitation Wind Pressure Humidity
    00:00 +3°C° 0.1 mm 2 mps 742 mmHg 95%
    01:00 +3°C° 0.1 mm 2 mps 742 mmHg 95%
    02:00 +3°C° 0.1 mm 2 mps 743 mmHg 95%
    03:00 +3°C° 0 mm 2 mps 743 mmHg 96%
    04:00 +3°C° 0 mm 1 mps 744 mmHg 97%
    05:00 +3°C° 0 mm 1 mps 744 mmHg 97%
    06:00 +2°C° 0 mm 2 mps 745 mmHg 95%
    07:00 +3°C° 0 mm 2 mps 745 mmHg 92%
    08:00 +3°C° 0 mm 2 mps 746 mmHg 89%
    09:00 +4°C° 0 mm 2 mps 746 mmHg 81%
    10:00 +5°C° 0 mm 2 mps 747 mmHg 74%
    11:00 +6°C° 0 mm 2 mps 747 mmHg 66%
    12:00 +7°C° 0.1 mm 3 mps 748 mmHg 63%
    13:00 +7°C° 0.1 mm 3 mps 748 mmHg 60%
    14:00 +7°C° 0.1 mm 3 mps 748 mmHg 57%
    15:00 +6°C° 0 mm 2 mps 748 mmHg 61%
    16:00 +5°C° 0 mm 2 mps 749 mmHg 65%
    17:00 +5°C° 0 mm 1 mps 749 mmHg 70%
    18:00 +4°C° 0 mm 1 mps 750 mmHg 73%
    19:00 +3°C° 0 mm 1 mps 750 mmHg 76%
    20:00 +2°C° 0 mm 1 mps 751 mmHg 79%
    21:00 +2°C° 0 mm 1 mps 751 mmHg 80%
    22:00 +1°C° 0 mm 1 mps 751 mmHg 80%
    23:00 +1°C° 0 mm 1 mps 751 mmHg 81%

    30 September, Sunday

    Time Temperature Precipitation Wind Pressure Humidity
    00:00 +1°C° 0 mm 1 mps 751 mmHg 82%
    01:00 +1°C° 0 mm 1 mps 751 mmHg 83%
    02:00 -1°C° 0 mm 2 mps 751 mmHg 85%
    03:00 -1°C° 0 mm 2 mps 751 mmHg 84%
    04:00 -1°C° 0 mm 2 mps 751 mmHg 84%
    05:00 -1°C° 0 mm 3 mps 751 mmHg 83%
    06:00 0°C° 0 mm 3 mps 751 mmHg 79%
    07:00 +1°C° 0 mm 4 mps 751 mmHg 75%
    08:00 +3°C° 0 mm 4 mps 751 mmHg 70%
    09:00 +4°C° 0 mm 4 mps 750 mmHg 66%
    10:00 +6°C° 0 mm 5 mps 750 mmHg 62%
    11:00 +8°C° 0 mm 5 mps 750 mmHg 58%
    12:00 +8°C° 0 mm 5 mps 750 mmHg 57%
    13:00 +9°C° 0 mm 5 mps 749 mmHg 56%
    14:00 +9°C° 0 mm 5 mps 749 mmHg 55%
    15:00 +10°C° 0 mm 4 mps 749 mmHg 60%
    16:00 +8°C° 0 mm 4 mps 749 mmHg 65%
    17:00 +8°C° 0 mm 3 mps 748 mmHg 70%
    18:00 +8°C° 0 mm 3 mps 748 mmHg 71%
    19:00 +7°C° 0 mm 3 mps 748 mmHg 72%
    20:00 +7°C° 0 mm 3 mps 748 mmHg 72%
    21:00 +7°C° 0 mm 3 mps 748 mmHg 73%
    22:00 +7°C° 0 mm 3 mps 748 mmHg 73%
    23:00 +7°C° 0 mm 3 mps 748 mmHg 73%
    Show more